Location: Newark
(12.4436°N, 0.6167°W)
Time: 02:35:29
(UTC+00:00)

Transit 2A - Pass Details

Date: 12 December 2019
Orbit: 601 x 958 km, 66.7° (Epoch: 23 January)

Event Time Altitude Azimuth Distance (km) Brightness Sun altitude
Rises 16:13:46 0° 347° (NNW) 2,973 8.9 17.7°
Reaches altitude 10° 16:16:01 10° 352° (N) 2,105 8.1 17.2°
Maximum altitude 16:20:41 54° 69° (ENE) 873 6.2 16.2°
Drops below altitude 10° 16:25:51 10° 147° (SSE) 2,326 8.5 15.1°
Sets 16:28:26 0° 151° (SSE) 3,316 9.3 14.5°
